Weather History for Independence, KS

Change the Weather History Date:

Wednesday, January 2, 2013

  Actual Average (KCFV) Record (KCFV)
Temperature  
Mean Temperature 24 °F -  
Max Temperature 37 °F 43 °F 73 °F (1997)
Min Temperature 12 °F 24 °F -8 °F (2001)
Degree Days  
Heating Degree Days 40    
Moisture  
Dew Point 21 °F    
Average Humidity 84    
Maximum Humidity 93    
Minimum Humidity 70    
Precipitation  
Precipitation 0.00 in - - ()
Sea Level Pressure  
Sea Level Pressure 30.25 in    
Wind  
Wind Speed 5 mph (WSW)    
Max Wind Speed 13 mph    
Max Gust Speed 16 mph    
Visibility 10 miles    
Events      
Averages and records for this station are not official NWS values.
T = Trace of Precipitation, MM = Missing Value Source: NWS Daily Summary

Daily Weather History Graph

Daily Weather History Graph

Search for Another Location

Airport:

Trip Planner

Search our weather history database for the weather conditions in past years. The results will help you decide how hot, cold, wet, or windy it might be!

Date:

Astronomy

Jan. 02, 2013 Rise Set
Actual Time 7:37 AM CST 5:17 PM CST
Civil Twilight 7:08 AM CST 5:46 PM CST
Nautical Twilight 6:35 AM CST 6:19 PM CST
Astronomical Twilight 6:04 AM CST 6:50 PM CST
Moon 10:43 PM CST (1/2) 10:26 AM CST (1/2)
Length of Visible Light 10h 38m
Length of Day
9h 40m
Waning Gibbous, 75% of the Moon is Illuminated
Jan 2
Waning Gibbous
Jan 4
Last Quarter
Jan 11
New
Jan 18
First Quarter
Jan 26
Full

Hourly Weather History & Observations

Time (CST) Temp. Windchill Dew Point Humidity Pressure Visibility Wind Dir Wind Speed Gust Speed Precip Events Conditions
12:15 AM 17.6 °F 12.3 °F 14.0 °F 86% 30.28 in 10.0 mi WNW 3.5 mph - N/A   Clear
12:35 AM 15.8 °F - 14.0 °F 93% 30.28 in 10.0 mi Calm Calm - N/A   Clear
12:55 AM 15.8 °F - 14.0 °F 93% 30.28 in 10.0 mi Calm Calm - N/A   Clear
1:15 AM 17.6 °F 10.7 °F 14.0 °F 86% 30.28 in 10.0 mi SSW 4.6 mph - N/A   Clear
1:35 AM 15.8 °F - 14.0 °F 93% 30.29 in 10.0 mi Calm Calm - N/A   Clear
1:55 AM 14.0 °F - 12.2 °F 93% 30.29 in 10.0 mi Calm Calm - N/A   Clear
2:15 AM 15.8 °F - 12.2 °F 86% 30.30 in 10.0 mi Calm Calm - N/A   Clear
2:35 AM 15.8 °F - 14.0 °F 93% 30.29 in 10.0 mi Calm Calm - N/A   Clear
3:15 AM 14.0 °F - 12.2 °F 93% 30.29 in 10.0 mi Calm Calm - N/A   Clear
3:35 AM 14.0 °F - 12.2 °F 93% 30.28 in 10.0 mi Calm Calm - N/A   Clear
3:55 AM 14.0 °F - 12.2 °F 93% 30.27 in 10.0 mi Calm Calm - N/A   Clear
4:15 AM 14.0 °F - 12.2 °F 93% 30.27 in 10.0 mi Calm Calm - N/A   Clear
4:35 AM 14.0 °F - 12.2 °F 93% 30.27 in 10.0 mi Calm Calm - N/A   Clear
4:55 AM 14.0 °F - 12.2 °F 93% 30.26 in 10.0 mi Calm Calm - N/A   Clear
5:15 AM 14.0 °F 8.2 °F 12.2 °F 93% 30.26 in 10.0 mi SSW 3.5 mph - N/A   Clear
5:35 AM 14.0 °F - 10.4 °F 86% 30.26 in 10.0 mi Calm Calm - N/A   Clear
5:55 AM 14.0 °F - 12.2 °F 93% 30.25 in 10.0 mi Calm Calm - N/A   Clear
6:15 AM 14.0 °F 3.9 °F 10.4 °F 86% 30.25 in 10.0 mi South 6.9 mph - N/A   Clear
6:35 AM 14.0 °F 5.1 °F 10.4 °F 86% 30.26 in 10.0 mi South 5.8 mph - N/A   Clear
6:55 AM 12.2 °F 6.1 °F 10.4 °F 92% 30.26 in 10.0 mi SSW 3.5 mph - N/A   Clear
7:15 AM 14.0 °F 6.5 °F 10.4 °F 86% 30.26 in 10.0 mi South 4.6 mph - N/A   Clear
7:35 AM 14.0 °F 3.9 °F 10.4 °F 86% 30.25 in 10.0 mi South 6.9 mph - N/A   Clear
7:55 AM 14.0 °F 8.2 °F 12.2 °F 93% 30.25 in 10.0 mi South 3.5 mph - N/A   Clear
8:15 AM 14.0 °F - 12.2 °F 93% 30.26 in 10.0 mi Calm Calm - N/A   Clear
8:35 AM 17.6 °F 10.7 °F 14.0 °F 86% 30.26 in 10.0 mi SSW 4.6 mph - N/A   Clear
8:55 AM 19.4 °F 11.5 °F 15.8 °F 86% 30.26 in 10.0 mi SW 5.8 mph - N/A   Clear
9:15 AM 21.2 °F 14.9 °F 17.6 °F 86% 30.27 in 10.0 mi SSW 4.6 mph - N/A   Clear
9:35 AM 23.0 °F 13.1 °F 19.4 °F 86% 30.26 in 10.0 mi SSW 9.2 mph - N/A   Clear
9:55 AM 26.6 °F 16.8 °F 21.2 °F 80% 30.27 in 7.0 mi SSW 10.4 mph - N/A   Clear
10:15 AM 26.6 °F 17.5 °F 23.0 °F 86% 30.27 in 7.0 mi SW 9.2 mph - N/A   Clear
10:35 AM 28.4 °F 18.5 °F 23.0 °F 80% 30.27 in 7.0 mi SW 11.5 mph - N/A   Clear
10:55 AM 28.4 °F 19.1 °F 24.8 °F 86% 30.26 in 7.0 mi SW 10.4 mph - N/A   Clear
11:15 AM 30.2 °F 20.8 °F 26.6 °F 86% 30.25 in 7.0 mi SSW 11.5 mph - N/A   Clear
11:35 AM 30.2 °F 20.8 °F 26.6 °F 86% 30.24 in 7.0 mi SW 11.5 mph - N/A   Clear
11:55 AM 32.0 °F 23.0 °F 26.6 °F 80% 30.22 in 10.0 mi SSW 11.5 mph - N/A   Clear
12:15 PM 32.0 °F 22.5 °F 28.4 °F 87% 30.20 in 7.0 mi SSW 12.7 mph - N/A   Clear
12:35 PM 33.8 °F 25.3 °F 28.4 °F 81% 30.20 in 10.0 mi SSW 11.5 mph 16.1 mph N/A   Clear
12:55 PM 33.8 °F 25.3 °F 28.4 °F 81% 30.19 in 10.0 mi SW 11.5 mph - N/A   Clear
1:15 PM 33.8 °F 25.8 °F 28.4 °F 81% 30.18 in 10.0 mi SW 10.4 mph - N/A   Clear
1:35 PM 35.6 °F 27.1 °F 28.4 °F 75% 30.17 in 10.0 mi SW 12.7 mph - N/A   Clear
1:55 PM 35.6 °F 27.1 °F 28.4 °F 75% 30.16 in 10.0 mi SSW 12.7 mph - N/A   Scattered Clouds
2:15 PM 35.6 °F 28.0 °F 28.4 °F 75% 30.16 in 10.0 mi WSW 10.4 mph - N/A   Clear
2:35 PM 35.6 °F 27.5 °F 28.4 °F 75% 30.17 in 10.0 mi SW 11.5 mph - N/A   Clear
2:55 PM 37.4 °F 29.3 °F 28.4 °F 70% 30.16 in 10.0 mi SW 12.7 mph - N/A   Clear
3:15 PM 37.4 °F 29.8 °F 28.4 °F 70% 30.17 in 10.0 mi SW 11.5 mph - N/A   Clear
3:35 PM 37.4 °F 29.8 °F 28.4 °F 70% 30.17 in 10.0 mi SSW 11.5 mph - N/A   Clear
3:55 PM 37.4 °F 29.8 °F 28.4 °F 70% 30.17 in 10.0 mi SW 11.5 mph - N/A   Clear
4:15 PM 37.4 °F 31.4 °F 28.4 °F 70% 30.18 in 10.0 mi SW 8.1 mph - N/A   Clear
4:35 PM 37.4 °F 30.3 °F 28.4 °F 70% 30.18 in 10.0 mi WSW 10.4 mph - N/A   Clear
4:55 PM 35.6 °F 29.2 °F 28.4 °F 75% 30.19 in 10.0 mi West 8.1 mph - N/A   Clear
5:15 PM 33.8 °F 28.6 °F 26.6 °F 75% 30.20 in 10.0 mi West 5.8 mph - N/A   Clear
5:35 PM 33.8 °F 28.6 °F 26.6 °F 75% 30.20 in 10.0 mi West 5.8 mph - N/A   Clear
5:55 PM 32.0 °F 24.8 °F 26.6 °F 80% 30.21 in 10.0 mi WNW 8.1 mph - N/A   Clear
6:35 PM 32.0 °F 26.4 °F 26.6 °F 80% 30.22 in 10.0 mi WNW 5.8 mph - N/A   Clear
6:55 PM 30.2 °F 25.4 °F 24.8 °F 80% 30.23 in 10.0 mi WNW 4.6 mph - N/A   Clear
7:15 PM 32.0 °F 28.7 °F 24.8 °F 75% 30.23 in 10.0 mi West 3.5 mph - N/A   Clear
7:35 PM 32.0 °F 27.5 °F 24.8 °F 75% 30.24 in 10.0 mi WSW 4.6 mph - N/A   Clear
7:55 PM 30.2 °F 25.4 °F 24.8 °F 80% 30.25 in 10.0 mi WSW 4.6 mph - N/A   Clear
8:15 PM 28.4 °F 20.4 °F 23.0 °F 80% 30.26 in 10.0 mi WNW 8.1 mph - N/A   Clear
8:35 PM 28.4 °F 19.7 °F 23.0 °F 80% 30.27 in 10.0 mi WNW 9.2 mph - N/A   Clear
8:55 PM 28.4 °F 19.1 °F 23.0 °F 80% 30.27 in 10.0 mi NW 10.4 mph - N/A   Clear
9:15 PM 28.4 °F 20.4 °F 23.0 °F 80% 30.28 in 10.0 mi NW 8.1 mph - N/A   Clear
9:35 PM 26.6 °F 19.1 °F 23.0 °F 86% 30.28 in 10.0 mi NW 6.9 mph - N/A   Clear
9:55 PM 26.6 °F 19.1 °F 23.0 °F 86% 30.29 in 10.0 mi NW 6.9 mph - N/A   Clear
10:15 PM 26.6 °F 21.2 °F 23.0 °F 86% 30.29 in 10.0 mi NNW 4.6 mph - N/A   Clear
10:35 PM 26.6 °F 22.6 °F 23.0 °F 86% 30.30 in 10.0 mi NNW 3.5 mph - N/A   Clear
10:55 PM 26.6 °F - 23.0 °F 86% 30.31 in 10.0 mi Calm Calm - N/A   Clear
11:15 PM 26.6 °F - 23.0 °F 86% 30.31 in 10.0 mi Calm Calm - N/A   Clear
11:35 PM 24.8 °F 17.9 °F 21.2 °F 86% 30.31 in 10.0 mi NW 5.8 mph - N/A   Clear
11:55 PM 24.8 °F 16.9 °F 23.0 °F 93% 30.30 in 10.0 mi NW 6.9 mph - N/A   Clear